Time,TemperatureF,DewpointF,PressureIn,WindDirection,WindDirectionDegrees,WindSpeedMPH,WindSpeedGustMPH,Humidity,HourlyPrecipIn,Conditions,Clouds,dailyrainin,SolarRadiationWatts/m^2,SoftwareType,DateUTC
2013-07-11 00:01:00,74.7,66.6,29.77,SW,222,0.0,12.0,76,0.00,,,0.00,0,WxPro DR1,2013-07-11 04:01:00,
2013-07-11 00:06:00,74.7,66.6,29.77,WSW,237,8.0,10.0,76,0.00,,,0.00,0,WxPro DR1,2013-07-11 04:06:00,
2013-07-11 00:11:00,74.7,66.6,29.77,SSW,208,0.0,10.0,76,0.00,,,0.00,0,WxPro DR1,2013-07-11 04:11:00,
2013-07-11 00:16:00,74.7,67.0,29.77,WSW,253,7.0,15.0,77,0.00,,,0.00,0,WxPro DR1,2013-07-11 04:16:00,
2013-07-11 00:21:00,74.6,66.9,29.77,SSE,164,1.0,15.0,77,0.00,,,0.00,0,WxPro DR1,2013-07-11 04:21:00,
2013-07-11 00:26:00,74.6,67.2,29.77,WNW,284,6.0,10.0,78,0.00,,,0.00,0,WxPro DR1,2013-07-11 04:26:00,
2013-07-11 00:31:00,74.4,67.1,29.77,West,269,7.0,13.0,78,0.00,,,0.00,0,WxPro DR1,2013-07-11 04:31:00,
2013-07-11 00:36:00,74.3,67.3,29.77,WSW,258,1.0,13.0,79,0.00,,,0.00,0,WxPro DR1,2013-07-11 04:36:00,
2013-07-11 00:41:00,74.2,67.2,29.77,WSW,252,4.0,9.0,79,0.00,,,0.00,0,WxPro DR1,2013-07-11 04:41:00,
2013-07-11 00:46:00,74.1,67.5,29.77,NNW,338,1.0,9.0,80,0.00,,,0.00,0,WxPro DR1,2013-07-11 04:46:00,
2013-07-11 00:51:00,74.0,67.6,29.77,NW,308,4.0,10.0,80,0.00,,,0.00,0,WxPro DR1,2013-07-11 04:51:00,
2013-07-11 00:56:00,73.8,67.6,29.78,WNW,290,3.0,10.0,81,0.00,,,0.00,0,WxPro DR1,2013-07-11 04:56:00,
2013-07-11 01:01:00,73.3,67.1,29.78,WNW,290,4.0,12.0,81,0.00,,,0.00,0,WxPro DR1,2013-07-11 05:01:00,
2013-07-11 01:06:00,72.8,66.6,29.78,WNW,286,3.0,14.0,81,0.00,,,0.00,0,WxPro DR1,2013-07-11 05:06:00,
2013-07-11 01:11:00,72.3,66.5,29.78,WNW,292,1.0,14.0,82,0.00,,,0.00,0,WxPro DR1,2013-07-11 05:11:00,
2013-07-11 01:17:00,71.9,66.1,29.78,NW,323,1.0,10.0,82,0.00,,,0.00,0,WxPro DR1,2013-07-11 05:17:00,
2013-07-11 01:22:00,71.7,66.2,29.78,NW,315,1.0,10.0,83,0.00,,,0.00,0,WxPro DR1,2013-07-11 05:22:00,
2013-07-11 01:27:00,71.6,66.5,29.78,NW,309,4.0,4.0,84,0.00,,,0.00,0,WxPro DR1,2013-07-11 05:27:00,
2013-07-11 01:32:00,71.5,66.4,29.78,NW,309,0.0,4.0,84,0.00,,,0.00,0,WxPro DR1,2013-07-11 05:32:00,
2013-07-11 01:37:00,71.4,66.3,29.78,NW,309,0.0,3.0,84,0.00,,,0.00,0,WxPro DR1,2013-07-11 05:37:00,
2013-07-11 01:42:00,71.3,65.9,29.79,West,279,0.0,7.0,83,0.00,,,0.00,0,WxPro DR1,2013-07-11 05:42:00,
2013-07-11 01:47:00,71.3,65.9,29.79,West,275,0.0,7.0,83,0.00,,,0.00,0,WxPro DR1,2013-07-11 05:47:00,
2013-07-11 01:52:00,71.3,65.5,29.79,WSW,256,3.0,6.0,82,0.00,,,0.00,0,WxPro DR1,2013-07-11 05:52:00,
2013-07-11 01:57:00,71.3,64.8,29.79,NW,315,0.0,7.0,80,0.00,,,0.00,0,WxPro DR1,2013-07-11 05:57:00,
2013-07-11 02:02:00,71.3,63.0,29.79,West,269,0.0,11.0,75,0.00,,,0.00,0,WxPro DR1,2013-07-11 06:02:00,
2013-07-11 02:07:00,71.3,62.2,29.79,NW,325,1.0,12.0,73,0.00,,,0.00,0,WxPro DR1,2013-07-11 06:07:00,
2013-07-11 02:12:00,71.3,61.9,29.80,West,279,4.0,12.0,72,0.00,,,0.00,0,WxPro DR1,2013-07-11 06:12:00,
2013-07-11 02:17:00,71.2,61.7,29.79,NW,311,0.0,10.0,72,0.00,,,0.00,0,WxPro DR1,2013-07-11 06:17:00,
2013-07-11 02:22:00,71.0,61.1,29.79,NW,321,11.0,11.0,71,0.00,,,0.00,0,WxPro DR1,2013-07-11 06:22:00,
2013-07-11 02:27:00,70.9,61.0,29.80,WNW,283,3.0,11.0,71,0.00,,,0.00,0,WxPro DR1,2013-07-11 06:27:00,
2013-07-11 02:32:00,70.7,61.2,29.80,NW,307,4.0,10.0,72,0.00,,,0.00,0,WxPro DR1,2013-07-11 06:32:00,
2013-07-11 02:37:00,70.6,61.5,29.80,NNW,328,4.0,10.0,73,0.00,,,0.00,0,WxPro DR1,2013-07-11 06:37:00,
2013-07-11 02:42:00,70.4,61.4,29.80,WNW,289,3.0,10.0,73,0.00,,,0.00,0,WxPro DR1,2013-07-11 06:42:00,
2013-07-11 02:47:00,70.2,61.5,29.80,West,275,4.0,10.0,74,0.00,,,0.00,0,WxPro DR1,2013-07-11 06:47:00,
2013-07-11 02:52:00,70.0,61.4,29.80,West,259,2.0,14.0,74,0.00,,,0.00,0,WxPro DR1,2013-07-11 06:52:00,
2013-07-11 02:57:00,69.9,61.6,29.80,WNW,297,0.0,14.0,75,0.00,,,0.00,0,WxPro DR1,2013-07-11 06:57:00,
2013-07-11 03:02:00,69.9,61.6,29.80,WNW,298,2.0,9.0,75,0.00,,,0.00,0,WxPro DR1,2013-07-11 07:02:00,
2013-07-11 03:07:00,69.7,61.4,29.80,WNW,287,5.0,11.0,75,0.00,,,0.00,0,WxPro DR1,2013-07-11 07:07:00,
2013-07-11 03:12:00,69.5,61.2,29.80,West,273,3.0,11.0,75,0.00,,,0.00,0,WxPro DR1,2013-07-11 07:12:00,
2013-07-11 03:17:00,69.3,61.4,29.80,WNW,288,2.0,10.0,76,0.00,,,0.00,0,WxPro DR1,2013-07-11 07:17:00,
2013-07-11 03:22:00,69.0,61.1,29.80,WNW,284,2.0,10.0,76,0.00,,,0.00,0,WxPro DR1,2013-07-11 07:22:00,
2013-07-11 03:27:00,68.7,61.2,29.81,WNW,292,0.0,9.0,77,0.00,,,0.00,0,WxPro DR1,2013-07-11 07:27:00,
2013-07-11 03:32:00,68.5,61.0,29.81,WNW,290,2.0,11.0,77,0.00,,,0.00,0,WxPro DR1,2013-07-11 07:32:00,
2013-07-11 03:37:00,68.4,61.2,29.82,WNW,285,4.0,11.0,78,0.00,,,0.00,0,WxPro DR1,2013-07-11 07:37:00,
2013-07-11 03:42:00,68.3,61.2,29.82,WNW,283,0.0,5.0,78,0.00,,,0.00,0,WxPro DR1,2013-07-11 07:42:00,
2013-07-11 03:47:00,68.1,61.0,29.82,WSW,255,3.0,7.0,78,0.00,,,0.00,0,WxPro DR1,2013-07-11 07:47:00,
2013-07-11 03:52:00,67.9,60.8,29.82,West,280,1.0,7.0,78,0.00,,,0.00,0,WxPro DR1,2013-07-11 07:52:00,
2013-07-11 03:57:00,67.7,60.6,29.82,WNW,286,1.0,9.0,78,0.00,,,0.00,0,WxPro DR1,2013-07-11 07:57:00,
2013-07-11 04:02:00,67.6,60.5,29.82,SSW,209,0.0,11.0,78,0.00,,,0.00,0,WxPro DR1,2013-07-11 08:02:00,
2013-07-11 04:07:00,67.4,60.3,29.82,WNW,294,2.0,11.0,78,0.00,,,0.00,0,WxPro DR1,2013-07-11 08:07:00,
2013-07-11 04:12:00,67.3,60.5,29.82,West,281,1.0,9.0,79,0.00,,,0.00,0,WxPro DR1,2013-07-11 08:12:00,
2013-07-11 04:17:00,67.0,60.3,29.82,WNW,290,1.0,7.0,79,0.00,,,0.00,0,WxPro DR1,2013-07-11 08:17:00,
2013-07-11 04:22:00,66.8,60.4,29.82,West,264,0.0,6.0,80,0.00,,,0.00,0,WxPro DR1,2013-07-11 08:22:00,
2013-07-11 04:27:00,66.6,60.6,29.82,West,265,0.0,6.0,81,0.00,,,0.00,0,WxPro DR1,2013-07-11 08:27:00,
2013-07-11 04:32:00,66.3,60.3,29.83,West,267,0.0,5.0,81,0.00,,,0.00,0,WxPro DR1,2013-07-11 08:32:00,
2013-07-11 04:37:00,66.1,60.4,29.83,WSW,249,1.0,8.0,82,0.00,,,0.00,0,WxPro DR1,2013-07-11 08:37:00,
2013-07-11 04:42:00,65.8,60.2,29.83,WNW,296,1.0,8.0,82,0.00,,,0.00,0,WxPro DR1,2013-07-11 08:42:00,
2013-07-11 04:47:00,65.6,60.0,29.84,SW,236,6.0,8.0,82,0.00,,,0.00,0,WxPro DR1,2013-07-11 08:47:00,
2013-07-11 04:52:00,65.5,59.8,29.83,SW,217,1.0,8.0,82,0.00,,,0.00,0,WxPro DR1,2013-07-11 08:52:00,
2013-07-11 04:57:00,65.3,59.7,29.83,SW,217,0.0,6.0,82,0.00,,,0.00,0,WxPro DR1,2013-07-11 08:57:00,
2013-07-11 05:02:00,65.1,59.6,29.84,SW,221,0.0,4.0,82,0.00,,,0.00,0,WxPro DR1,2013-07-11 09:02:00,
2013-07-11 05:07:00,64.9,59.6,29.84,SW,221,0.0,4.0,83,0.00,,,0.00,0,WxPro DR1,2013-07-11 09:07:00,
2013-07-11 05:12:00,64.6,59.4,29.85,SW,221,0.0,4.0,83,0.00,,,0.00,0,WxPro DR1,2013-07-11 09:12:00,
2013-07-11 05:17:00,64.3,59.4,29.85,SW,221,0.0,1.0,84,0.00,,,0.00,0,WxPro DR1,2013-07-11 09:17:00,
2013-07-11 05:22:00,64.1,59.5,29.85,SW,221,0.0,3.0,85,0.00,,,0.00,0,WxPro DR1,2013-07-11 09:22:00,
2013-07-11 05:27:00,63.8,59.2,29.85,SW,221,0.0,4.0,85,0.00,,,0.00,0,WxPro DR1,2013-07-11 09:27:00,
2013-07-11 05:32:00,63.6,59.4,29.85,SW,221,3.0,4.0,86,0.00,,,0.00,0,WxPro DR1,2013-07-11 09:32:00,
2013-07-11 05:37:00,63.5,59.2,29.85,SW,225,2.0,4.0,86,0.00,,,0.00,0,WxPro DR1,2013-07-11 09:37:00,
2013-07-11 05:42:00,63.3,59.0,29.86,SW,225,0.0,4.0,86,0.00,,,0.00,0,WxPro DR1,2013-07-11 09:42:00,
2013-07-11 05:47:00,63.2,58.9,29.86,SW,225,0.0,3.0,86,0.00,,,0.00,0,WxPro DR1,2013-07-11 09:47:00,
2013-07-11 05:52:00,63.1,59.1,29.86,SW,225,0.0,3.0,87,0.00,,,0.00,7,WxPro DR1,2013-07-11 09:52:00,
2013-07-11 05:57:00,62.9,59.0,29.86,SW,225,0.0,1.0,87,0.00,,,0.00,11,WxPro DR1,2013-07-11 09:57:00,
2013-07-11 06:02:00,62.8,59.0,29.86,SW,225,0.0,1.0,87,0.00,,,0.00,14,WxPro DR1,2013-07-11 10:02:00,
2013-07-11 06:07:00,62.7,59.1,29.86,SW,225,0.0,3.0,88,0.00,,,0.00,16,WxPro DR1,2013-07-11 10:07:00,
2013-07-11 06:12:00,62.6,59.0,29.86,SW,225,0.0,3.0,88,0.00,,,0.00,19,WxPro DR1,2013-07-11 10:12:00,
2013-07-11 06:17:00,62.7,59.1,29.86,SW,225,0.0,2.0,88,0.00,,,0.00,21,WxPro DR1,2013-07-11 10:17:00,
2013-07-11 06:22:00,62.7,59.1,29.87,SW,222,0.0,3.0,88,0.00,,,0.00,25,WxPro DR1,2013-07-11 10:22:00,
2013-07-11 06:27:00,62.8,59.2,29.87,SW,222,0.0,3.0,88,0.00,,,0.00,28,WxPro DR1,2013-07-11 10:27:00,
2013-07-11 06:32:00,62.8,59.2,29.87,SW,222,4.0,4.0,88,0.00,,,0.00,30,WxPro DR1,2013-07-11 10:32:00,
2013-07-11 06:37:00,62.9,59.3,29.87,SW,223,0.0,4.0,88,0.00,,,0.00,35,WxPro DR1,2013-07-11 10:37:00,
2013-07-11 06:42:00,63.0,59.4,29.88,SW,223,0.0,4.0,88,0.00,,,0.00,44,WxPro DR1,2013-07-11 10:42:00,
2013-07-11 06:47:00,63.1,59.5,29.88,SW,223,0.0,2.0,88,0.00,,,0.00,42,WxPro DR1,2013-07-11 10:47:00,
2013-07-11 06:52:00,63.3,59.7,29.88,SW,222,0.0,2.0,88,0.00,,,0.00,58,WxPro DR1,2013-07-11 10:52:00,
2013-07-11 06:57:00,63.5,59.8,29.88,WSW,237,1.0,5.0,88,0.00,,,0.00,74,WxPro DR1,2013-07-11 10:57:00,
2013-07-11 07:02:00,63.7,60.1,29.88,South,189,0.0,6.0,88,0.00,,,0.00,62,WxPro DR1,2013-07-11 11:02:00,
2013-07-11 07:07:00,63.8,60.2,29.89,WSW,252,1.0,6.0,88,0.00,,,0.00,58,WxPro DR1,2013-07-11 11:07:00,
2013-07-11 07:12:00,63.9,60.0,29.89,WSW,252,0.0,5.0,87,0.00,,,0.00,67,WxPro DR1,2013-07-11 11:12:00,
2013-07-11 07:17:00,64.0,60.4,29.89,WSW,252,0.0,4.0,88,0.00,,,0.00,72,WxPro DR1,2013-07-11 11:17:00,
2013-07-11 07:22:00,64.3,60.5,29.89,West,259,0.0,7.0,88,0.00,,,0.00,176,WxPro DR1,2013-07-11 11:22:00,
2013-07-11 07:27:00,64.5,60.2,29.89,WSW,257,0.0,7.0,86,0.00,,,0.00,244,WxPro DR1,2013-07-11 11:27:00,
2013-07-11 07:32:00,64.9,60.6,29.89,NW,319,3.0,6.0,86,0.00,,,0.00,234,WxPro DR1,2013-07-11 11:32:00,
2013-07-11 07:37:00,65.4,60.8,29.89,West,263,2.0,7.0,85,0.00,,,0.00,265,WxPro DR1,2013-07-11 11:37:00,
2013-07-11 07:42:00,65.8,60.5,29.89,West,280,0.0,7.0,83,0.00,,,0.00,279,WxPro DR1,2013-07-11 11:42:00,
2013-07-11 07:47:00,66.0,60.7,29.89,West,268,4.0,10.0,83,0.00,,,0.00,295,WxPro DR1,2013-07-11 11:47:00,
2013-07-11 07:52:00,66.2,60.6,29.89,West,272,0.0,10.0,82,0.00,,,0.00,313,WxPro DR1,2013-07-11 11:52:00,
2013-07-11 07:57:00,66.4,60.7,29.90,SW,222,2.0,10.0,82,0.00,,,0.00,327,WxPro DR1,2013-07-11 11:57:00,
2013-07-11 08:02:00,66.6,60.9,29.90,West,268,4.0,9.0,82,0.00,,,0.00,343,WxPro DR1,2013-07-11 12:02:00,
2013-07-11 08:07:00,66.9,60.8,29.91,West,275,5.0,9.0,81,0.00,,,0.00,359,WxPro DR1,2013-07-11 12:07:00,
2013-07-11 08:12:00,67.1,60.7,29.90,SW,218,3.0,7.0,80,0.00,,,0.00,374,WxPro DR1,2013-07-11 12:12:00,
2013-07-11 08:17:00,67.2,60.8,29.91,WSW,242,5.0,9.0,80,0.00,,,0.00,388,WxPro DR1,2013-07-11 12:17:00,
2013-07-11 08:22:00,67.3,60.8,29.91,WNW,288,3.0,9.0,79,0.00,,,0.00,418,WxPro DR1,2013-07-11 12:22:00,
2013-07-11 08:27:00,67.5,60.8,29.91,NW,307,5.0,11.0,79,0.00,,,0.00,427,WxPro DR1,2013-07-11 12:27:00,
2013-07-11 08:32:00,67.6,60.9,29.91,West,275,1.0,11.0,79,0.00,,,0.00,434,WxPro DR1,2013-07-11 12:32:00,
2013-07-11 08:37:00,68.0,60.8,29.91,WNW,290,3.0,11.0,78,0.00,,,0.00,464,WxPro DR1,2013-07-11 12:37:00,
2013-07-11 08:42:00,68.3,61.1,29.91,West,261,1.0,11.0,78,0.00,,,0.00,494,WxPro DR1,2013-07-11 12:42:00,
2013-07-11 08:47:00,68.7,61.1,29.92,WSW,244,0.0,7.0,77,0.00,,,0.00,519,WxPro DR1,2013-07-11 12:47:00,
2013-07-11 08:52:00,68.7,61.2,29.91,West,269,0.0,10.0,77,0.00,,,0.00,132,WxPro DR1,2013-07-11 12:52:00,
2013-07-11 08:57:00,68.3,61.0,29.92,West,271,5.0,10.0,78,0.00,,,0.00,647,WxPro DR1,2013-07-11 12:57:00,
2013-07-11 09:02:00,68.6,61.3,29.92,NW,311,3.0,9.0,78,0.00,,,0.00,589,WxPro DR1,2013-07-11 13:02:00,
2013-07-11 09:07:00,69.3,61.4,29.92,WSW,257,0.0,9.0,76,0.00,,,0.00,582,WxPro DR1,2013-07-11 13:07:00,
2013-07-11 09:12:00,69.7,61.4,29.92,NW,309,4.0,12.0,75,0.00,,,0.00,619,WxPro DR1,2013-07-11 13:12:00,
2013-07-11 09:17:00,69.5,61.6,29.92,WNW,289,2.0,12.0,76,0.00,,,0.00,761,WxPro DR1,2013-07-11 13:17:00,
2013-07-11 09:22:00,69.7,61.8,29.92,WSW,237,0.0,9.0,76,0.00,,,0.00,675,WxPro DR1,2013-07-11 13:22:00,
2013-07-11 09:27:00,70.0,61.7,29.92,NW,315,3.0,9.0,75,0.00,,,0.00,329,WxPro DR1,2013-07-11 13:27:00,
2013-07-11 09:32:00,70.5,62.3,29.91,WNW,284,6.0,7.0,75,0.00,,,0.00,276,WxPro DR1,2013-07-11 13:32:00,
2013-07-11 09:37:00,70.6,61.9,29.92,SSW,213,2.0,9.0,74,0.00,,,0.00,262,WxPro DR1,2013-07-11 13:37:00,
2013-07-11 09:42:00,69.6,61.7,29.92,West,263,2.0,10.0,76,0.00,,,0.00,318,WxPro DR1,2013-07-11 13:42:00,
2013-07-11 09:47:00,69.1,61.5,29.92,West,275,3.0,10.0,77,0.00,,,0.00,330,WxPro DR1,2013-07-11 13:47:00,
2013-07-11 09:52:00,69.3,62.1,29.92,West,263,3.0,9.0,78,0.00,,,0.00,299,WxPro DR1,2013-07-11 13:52:00,
2013-07-11 09:57:00,69.7,62.0,29.92,NNW,327,4.0,9.0,76,0.00,,,0.00,373,WxPro DR1,2013-07-11 13:57:00,
2013-07-11 10:02:00,69.9,62.1,29.92,WNW,284,3.0,9.0,76,0.00,,,0.00,838,WxPro DR1,2013-07-11 14:02:00,
2013-07-11 10:07:00,70.4,62.1,29.92,WNW,302,4.0,9.0,75,0.00,,,0.00,193,WxPro DR1,2013-07-11 14:07:00,
2013-07-11 10:12:00,70.4,62.4,29.92,West,262,6.0,9.0,76,0.00,,,0.00,141,WxPro DR1,2013-07-11 14:12:00,
2013-07-11 10:17:00,70.5,62.5,29.92,SW,226,5.0,9.0,76,0.00,,,0.00,754,WxPro DR1,2013-07-11 14:17:00,
2013-07-11 10:23:00,70.8,62.8,29.92,NW,321,0.0,9.0,76,0.00,,,0.00,877,WxPro DR1,2013-07-11 14:23:00,
2013-07-11 10:28:00,71.1,62.7,29.92,NNE,13,6.0,10.0,75,0.00,,,0.00,281,WxPro DR1,2013-07-11 14:28:00,
2013-07-11 10:33:00,70.9,62.6,29.92,NNW,327,2.0,10.0,75,0.00,,,0.00,956,WxPro DR1,2013-07-11 14:33:00,
2013-07-11 10:38:00,71.4,62.7,29.92,WNW,282,1.0,6.0,74,0.00,,,0.00,904,WxPro DR1,2013-07-11 14:38:00,
2013-07-11 10:43:00,71.7,62.9,29.92,WSW,248,4.0,5.0,74,0.00,,,0.00,246,WxPro DR1,2013-07-11 14:43:00,
2013-07-11 10:48:00,71.6,62.6,29.92,West,265,0.0,5.0,73,0.00,,,0.00,262,WxPro DR1,2013-07-11 14:48:00,
2013-07-11 10:53:00,71.4,63.1,29.92,West,267,2.0,7.0,75,0.00,,,0.00,997,WxPro DR1,2013-07-11 14:53:00,
2013-07-11 10:58:00,71.6,62.9,29.92,West,261,4.0,7.0,74,0.00,,,0.00,306,WxPro DR1,2013-07-11 14:58:00,
2013-07-11 11:03:00,71.7,62.9,29.92,WSW,256,0.0,7.0,74,0.00,,,0.00,297,WxPro DR1,2013-07-11 15:03:00,
2013-07-11 11:08:00,71.7,63.0,29.92,WNW,295,2.0,6.0,74,0.00,,,0.00,320,WxPro DR1,2013-07-11 15:08:00,
2013-07-11 11:13:00,71.6,62.9,29.92,WSW,243,2.0,6.0,74,0.00,,,0.00,497,WxPro DR1,2013-07-11 15:13:00,
2013-07-11 11:18:00,71.5,62.7,29.92,West,271,0.0,5.0,74,0.00,,,0.00,230,WxPro DR1,2013-07-11 15:18:00,
2013-07-11 11:23:00,71.4,63.1,29.92,WNW,295,4.0,5.0,75,0.00,,,0.00,253,WxPro DR1,2013-07-11 15:23:00,
2013-07-11 11:28:00,71.4,63.4,29.92,NNW,334,3.0,5.0,76,0.00,,,0.00,545,WxPro DR1,2013-07-11 15:28:00,
2013-07-11 11:33:00,71.9,63.7,29.92,NNW,331,0.0,5.0,75,0.00,,,0.00,297,WxPro DR1,2013-07-11 15:33:00,
2013-07-11 11:38:00,72.7,63.6,29.92,WNW,295,2.0,6.0,73,0.00,,,0.00,279,WxPro DR1,2013-07-11 15:38:00,
2013-07-11 11:43:00,72.4,63.5,29.92,WNW,287,3.0,6.0,74,0.00,,,0.00,355,WxPro DR1,2013-07-11 15:43:00,
2013-07-11 11:48:00,72.1,63.4,29.92,WNW,282,0.0,4.0,74,0.00,,,0.00,230,WxPro DR1,2013-07-11 15:48:00,
2013-07-11 11:53:00,72.2,63.4,29.92,WNW,289,1.0,7.0,74,0.00,,,0.00,315,WxPro DR1,2013-07-11 15:53:00,
2013-07-11 11:58:00,72.5,63.8,29.92,WNW,290,5.0,7.0,74,0.00,,,0.00,1195,WxPro DR1,2013-07-11 15:58:00,
2013-07-11 12:03:00,73.4,64.7,29.92,WNW,296,3.0,7.0,74,0.00,,,0.00,1183,WxPro DR1,2013-07-11 16:03:00,
2013-07-11 12:09:00,74.1,64.1,29.92,NNW,336,6.0,9.0,71,0.00,,,0.00,301,WxPro DR1,2013-07-11 16:09:00,
2013-07-11 12:14:00,73.7,64.1,29.92,WSW,237,0.0,9.0,72,0.00,,,0.00,439,WxPro DR1,2013-07-11 16:14:00,
2013-07-11 12:19:00,73.7,64.1,29.92,NNE,28,4.0,9.0,72,0.00,,,0.00,297,WxPro DR1,2013-07-11 16:19:00,
2013-07-11 12:24:00,73.9,64.5,29.92,West,267,3.0,9.0,72,0.00,,,0.00,1081,WxPro DR1,2013-07-11 16:24:00,
2013-07-11 12:29:00,74.2,64.6,29.93,West,265,1.0,9.0,72,0.00,,,0.00,1102,WxPro DR1,2013-07-11 16:29:00,
2013-07-11 12:34:00,74.7,63.4,29.92,NNW,329,2.0,9.0,68,0.00,,,0.00,1185,WxPro DR1,2013-07-11 16:34:00,
2013-07-11 12:39:00,75.0,64.1,29.92,WNW,289,3.0,9.0,69,0.00,,,0.00,1220,WxPro DR1,2013-07-11 16:39:00,
2013-07-11 12:44:00,75.3,64.7,29.93,NE,41,5.0,9.0,70,0.00,,,0.00,1179,WxPro DR1,2013-07-11 16:44:00,
2013-07-11 12:49:00,75.9,64.7,29.92,NW,306,3.0,10.0,68,0.00,,,0.00,1086,WxPro DR1,2013-07-11 16:49:00,
2013-07-11 12:54:00,76.2,65.7,29.92,NW,311,2.0,10.0,70,0.00,,,0.00,1144,WxPro DR1,2013-07-11 16:54:00,
2013-07-11 12:59:00,76.4,64.2,29.92,NNE,20,2.0,10.0,66,0.00,,,0.00,239,WxPro DR1,2013-07-11 16:59:00,
2013-07-11 13:04:00,75.4,63.9,29.92,WNW,299,0.0,10.0,67,0.00,,,0.00,1106,WxPro DR1,2013-07-11 17:04:00,
2013-07-11 13:10:00,75.6,64.4,29.92,North,351,3.0,8.0,68,0.00,,,0.00,376,WxPro DR1,2013-07-11 17:10:00,
2013-07-11 13:15:00,76.3,64.6,29.92,WNW,294,2.0,9.0,67,0.00,,,0.00,1132,WxPro DR1,2013-07-11 17:15:00,
2013-07-11 13:20:00,76.0,65.1,29.92,WNW,282,6.0,9.0,69,0.00,,,0.00,216,WxPro DR1,2013-07-11 17:20:00,
2013-07-11 13:25:00,75.6,65.3,29.92,North,356,0.0,10.0,70,0.00,,,0.00,163,WxPro DR1,2013-07-11 17:25:00,
2013-07-11 13:30:00,75.1,64.2,29.92,WNW,302,1.0,10.0,69,0.00,,,0.00,1046,WxPro DR1,2013-07-11 17:30:00,
2013-07-11 13:35:00,75.5,64.6,29.92,NNW,336,5.0,7.0,69,0.00,,,0.00,1027,WxPro DR1,2013-07-11 17:35:00,
2013-07-11 13:40:00,75.8,64.9,29.91,NNW,340,3.0,7.0,69,0.00,,,0.00,1102,WxPro DR1,2013-07-11 17:40:00,
2013-07-11 13:45:00,75.4,64.6,29.92,North,1,2.0,13.0,69,0.00,,,0.00,292,WxPro DR1,2013-07-11 17:45:00,
2013-07-11 13:50:00,75.2,64.2,29.92,NW,311,0.0,13.0,69,0.00,,,0.00,1074,WxPro DR1,2013-07-11 17:50:00,
2013-07-11 13:55:00,75.6,63.9,29.92,WNW,284,3.0,10.0,67,0.00,,,0.00,1053,WxPro DR1,2013-07-11 17:55:00,
2013-07-11 14:00:00,75.9,64.8,29.92,NE,34,1.0,10.0,68,0.00,,,0.00,991,WxPro DR1,2013-07-11 18:00:00,
2013-07-11 14:05:00,76.7,65.2,29.92,NNW,331,5.0,7.0,68,0.00,,,0.00,1023,WxPro DR1,2013-07-11 18:05:00,
2013-07-11 14:10:00,77.4,64.7,29.91,NNW,327,0.0,7.0,65,0.00,,,0.00,1039,WxPro DR1,2013-07-11 18:10:00,
2013-07-11 14:15:00,78.2,65.8,29.91,West,261,3.0,7.0,66,0.00,,,0.00,1032,WxPro DR1,2013-07-11 18:15:00,
2013-07-11 14:20:00,78.5,64.3,29.91,NW,323,3.0,10.0,62,0.00,,,0.00,1071,WxPro DR1,2013-07-11 18:20:00,
2013-07-11 14:25:00,78.0,64.2,29.91,WSW,246,1.0,10.0,63,0.00,,,0.00,1020,WxPro DR1,2013-07-11 18:25:00,
2013-07-11 14:30:00,77.6,64.7,29.91,NNW,332,2.0,9.0,65,0.00,,,0.00,1028,WxPro DR1,2013-07-11 18:30:00,
2013-07-11 14:35:00,77.6,64.9,29.91,NNW,332,0.0,6.0,65,0.00,,,0.00,204,WxPro DR1,2013-07-11 18:35:00,
2013-07-11 14:40:00,77.8,65.0,29.91,North,351,4.0,5.0,65,0.00,,,0.00,221,WxPro DR1,2013-07-11 18:40:00,
2013-07-11 14:45:00,77.8,65.1,29.91,West,271,3.0,10.0,65,0.00,,,0.00,1056,WxPro DR1,2013-07-11 18:45:00,
2013-07-11 14:50:00,77.8,64.7,29.91,North,356,3.0,10.0,64,0.00,,,0.00,1049,WxPro DR1,2013-07-11 18:50:00,
2013-07-11 14:55:00,78.0,64.4,29.91,North,351,3.0,6.0,63,0.00,,,0.00,1004,WxPro DR1,2013-07-11 18:55:00,
2013-07-11 15:00:00,78.0,64.0,29.92,NNW,335,1.0,10.0,62,0.00,,,0.00,967,WxPro DR1,2013-07-11 19:00:00,
2013-07-11 15:05:00,77.9,64.7,29.92,NNW,329,4.0,10.0,64,0.00,,,0.00,976,WxPro DR1,2013-07-11 19:05:00,
2013-07-11 15:10:00,78.1,64.3,29.92,North,5,2.0,7.0,63,0.00,,,0.00,230,WxPro DR1,2013-07-11 19:10:00,
2013-07-11 15:15:00,77.5,64.3,29.92,NNW,338,3.0,7.0,64,0.00,,,0.00,944,WxPro DR1,2013-07-11 19:15:00,
2013-07-11 15:21:00,77.7,63.9,29.92,North,9,1.0,6.0,63,0.00,,,0.00,976,WxPro DR1,2013-07-11 19:21:00,
2013-07-11 15:26:00,78.6,63.7,29.92,West,275,0.0,9.0,60,0.00,,,0.00,162,WxPro DR1,2013-07-11 19:26:00,
2013-07-11 15:31:00,78.2,63.6,29.92,North,1,0.0,9.0,61,0.00,,,0.00,244,WxPro DR1,2013-07-11 19:31:00,
2013-07-11 15:36:00,77.4,64.0,29.92,SW,230,0.0,6.0,63,0.00,,,0.00,336,WxPro DR1,2013-07-11 19:36:00,
2013-07-11 15:41:00,77.5,62.9,29.92,NNW,327,3.0,5.0,61,0.00,,,0.00,881,WxPro DR1,2013-07-11 19:41:00,
2013-07-11 15:46:00,77.7,63.1,29.92,NW,312,0.0,7.0,61,0.00,,,0.00,888,WxPro DR1,2013-07-11 19:46:00,
2013-07-11 15:51:00,78.1,62.5,29.92,North,10,5.0,7.0,59,0.00,,,0.00,893,WxPro DR1,2013-07-11 19:51:00,
2013-07-11 15:56:00,78.6,63.0,29.92,NNE,23,4.0,7.0,59,0.00,,,0.00,904,WxPro DR1,2013-07-11 19:56:00,
2013-07-11 16:01:00,79.0,63.8,29.92,WNW,283,2.0,9.0,60,0.00,,,0.00,916,WxPro DR1,2013-07-11 20:01:00,
2013-07-11 16:06:00,79.1,63.1,29.92,WNW,285,0.0,9.0,58,0.00,,,0.00,831,WxPro DR1,2013-07-11 20:06:00,
2013-07-11 16:11:00,79.5,64.0,29.92,North,356,1.0,9.0,59,0.00,,,0.00,853,WxPro DR1,2013-07-11 20:11:00,
2013-07-11 16:16:00,80.4,63.8,29.92,NW,322,0.0,6.0,57,0.00,,,0.00,886,WxPro DR1,2013-07-11 20:16:00,
2013-07-11 16:21:00,80.3,63.7,29.92,NW,311,3.0,9.0,57,0.00,,,0.00,199,WxPro DR1,2013-07-11 20:21:00,
2013-07-11 16:26:00,79.4,65.2,29.92,North,5,0.0,9.0,62,0.00,,,0.00,169,WxPro DR1,2013-07-11 20:26:00,
2013-07-11 16:31:00,79.0,65.3,29.92,ENE,58,3.0,3.0,63,0.00,,,0.00,179,WxPro DR1,2013-07-11 20:31:00,
2013-07-11 16:36:00,78.7,65.3,29.92,NE,45,2.0,4.0,64,0.00,,,0.00,151,WxPro DR1,2013-07-11 20:36:00,
2013-07-11 16:41:00,78.7,65.4,29.92,NE,45,0.0,4.0,64,0.00,,,0.00,125,WxPro DR1,2013-07-11 20:41:00,
2013-07-11 16:46:00,78.3,64.9,29.93,NE,45,0.0,3.0,63,0.00,,,0.00,137,WxPro DR1,2013-07-11 20:46:00,
2013-07-11 16:51:00,77.8,64.9,29.92,NW,311,1.0,6.0,65,0.00,,,0.00,322,WxPro DR1,2013-07-11 20:51:00,
2013-07-11 16:56:00,77.2,64.6,29.92,NE,47,2.0,6.0,65,0.00,,,0.00,250,WxPro DR1,2013-07-11 20:56:00,
2013-07-11 17:01:00,77.4,64.6,29.93,North,5,1.0,6.0,65,0.00,,,0.00,144,WxPro DR1,2013-07-11 21:01:00,
2013-07-11 17:06:00,77.5,64.3,29.93,NNW,345,0.0,6.0,64,0.00,,,0.00,151,WxPro DR1,2013-07-11 21:06:00,
2013-07-11 17:11:00,77.2,64.1,29.93,ENE,57,0.0,5.0,64,0.00,,,0.00,176,WxPro DR1,2013-07-11 21:11:00,
2013-07-11 17:16:00,77.2,64.2,29.93,North,11,4.0,4.0,64,0.00,,,0.00,113,WxPro DR1,2013-07-11 21:16:00,
2013-07-11 17:21:00,77.1,63.5,29.93,NNW,341,0.0,5.0,63,0.00,,,0.00,81,WxPro DR1,2013-07-11 21:21:00,
2013-07-11 17:26:00,76.8,63.5,29.93,North,351,0.0,4.0,63,0.00,,,0.00,116,WxPro DR1,2013-07-11 21:26:00,
2013-07-11 17:31:00,76.5,63.1,29.93,North,1,0.0,4.0,63,0.00,,,0.00,120,WxPro DR1,2013-07-11 21:31:00,
2013-07-11 17:36:00,76.4,62.8,29.93,ENE,70,1.0,6.0,63,0.00,,,0.00,552,WxPro DR1,2013-07-11 21:36:00,
2013-07-11 17:42:00,76.9,62.4,29.93,NNE,19,1.0,6.0,61,0.00,,,0.00,123,WxPro DR1,2013-07-11 21:42:00,
2013-07-11 17:47:00,77.4,63.3,29.93,North,9,2.0,6.0,62,0.00,,,0.00,496,WxPro DR1,2013-07-11 21:47:00,
2013-07-11 17:52:00,78.0,62.8,29.93,NNW,342,2.0,6.0,60,0.00,,,0.00,476,WxPro DR1,2013-07-11 21:52:00,
2013-07-11 17:57:00,78.6,63.8,29.93,North,351,1.0,6.0,60,0.00,,,0.00,459,WxPro DR1,2013-07-11 21:57:00,
2013-07-11 18:02:00,78.7,63.6,29.93,NNE,22,1.0,9.0,60,0.00,,,0.00,441,WxPro DR1,2013-07-11 22:02:00,
2013-07-11 18:07:00,79.0,63.2,29.93,NE,34,1.0,9.0,59,0.00,,,0.00,427,WxPro DR1,2013-07-11 22:07:00,
2013-07-11 18:12:00,79.2,64.0,29.93,NNE,21,3.0,5.0,60,0.00,,,0.00,413,WxPro DR1,2013-07-11 22:12:00,
2013-07-11 18:17:00,79.5,64.3,29.93,NNE,13,1.0,4.0,60,0.00,,,0.00,399,WxPro DR1,2013-07-11 22:17:00,
2013-07-11 18:22:00,79.8,63.2,29.93,NNE,28,0.0,6.0,57,0.00,,,0.00,388,WxPro DR1,2013-07-11 22:22:00,
2013-07-11 18:27:00,79.9,63.7,29.93,NE,41,1.0,6.0,58,0.00,,,0.00,376,WxPro DR1,2013-07-11 22:27:00,
2013-07-11 18:32:00,80.0,63.9,29.93,NE,56,0.0,5.0,58,0.00,,,0.00,362,WxPro DR1,2013-07-11 22:32:00,
2013-07-11 18:37:00,80.1,63.5,29.93,NW,317,3.0,5.0,57,0.00,,,0.00,341,WxPro DR1,2013-07-11 22:37:00,
2013-07-11 18:42:00,80.1,63.8,29.93,NW,321,3.0,5.0,58,0.00,,,0.00,330,WxPro DR1,2013-07-11 22:42:00,
2013-07-11 18:47:00,79.8,63.7,29.94,NNW,336,1.0,7.0,58,0.00,,,0.00,311,WxPro DR1,2013-07-11 22:47:00,
2013-07-11 18:52:00,79.3,63.1,29.94,NNW,333,1.0,7.0,58,0.00,,,0.00,292,WxPro DR1,2013-07-11 22:52:00,
2013-07-11 18:57:00,79.0,62.7,29.94,North,356,0.0,5.0,57,0.00,,,0.00,278,WxPro DR1,2013-07-11 22:57:00,
2013-07-11 19:02:00,79.0,62.6,29.94,WNW,295,1.0,5.0,57,0.00,,,0.00,260,WxPro DR1,2013-07-11 23:02:00,
2013-07-11 19:07:00,78.9,63.0,29.94,NNE,25,0.0,4.0,58,0.00,,,0.00,237,WxPro DR1,2013-07-11 23:07:00,
2013-07-11 19:12:00,78.9,63.4,29.94,North,8,2.0,5.0,59,0.00,,,0.00,214,WxPro DR1,2013-07-11 23:12:00,
2013-07-11 19:17:00,78.8,64.7,29.94,North,9,1.0,5.0,62,0.00,,,0.00,193,WxPro DR1,2013-07-11 23:17:00,
2013-07-11 19:22:00,78.7,65.0,29.94,North,10,0.0,4.0,63,0.00,,,0.00,178,WxPro DR1,2013-07-11 23:22:00,
2013-07-11 19:27:00,78.2,65.0,29.95,NE,36,1.0,5.0,64,0.00,,,0.00,160,WxPro DR1,2013-07-11 23:27:00,
2013-07-11 19:32:00,77.8,65.0,29.95,NE,37,0.0,5.0,65,0.00,,,0.00,142,WxPro DR1,2013-07-11 23:32:00,
2013-07-11 19:37:00,77.8,64.2,29.95,NE,36,0.0,2.0,63,0.00,,,0.00,125,WxPro DR1,2013-07-11 23:37:00,
2013-07-11 19:42:00,78.0,64.1,29.95,NE,36,0.0,2.0,62,0.00,,,0.00,109,WxPro DR1,2013-07-11 23:42:00,
2013-07-11 19:47:00,78.2,63.9,29.95,NE,34,2.0,4.0,62,0.00,,,0.00,97,WxPro DR1,2013-07-11 23:47:00,
2013-07-11 19:52:00,78.0,63.9,29.95,NE,35,0.0,4.0,62,0.00,,,0.00,83,WxPro DR1,2013-07-11 23:52:00,
2013-07-11 19:57:00,77.7,64.5,29.95,NE,34,0.0,2.0,64,0.00,,,0.00,69,WxPro DR1,2013-07-11 23:57:00,
2013-07-11 20:02:00,77.2,64.9,29.95,NE,34,0.0,2.0,66,0.00,,,0.00,56,WxPro DR1,2013-07-12 00:02:00,
2013-07-11 20:07:00,76.3,65.0,29.95,NE,34,1.0,2.0,68,0.00,,,0.00,46,WxPro DR1,2013-07-12 00:07:00,
2013-07-11 20:12:00,75.6,64.7,29.95,NE,35,0.0,2.0,69,0.00,,,0.00,28,WxPro DR1,2013-07-12 00:12:00,
2013-07-11 20:17:00,74.8,64.9,29.96,NE,37,0.0,5.0,72,0.00,,,0.00,23,WxPro DR1,2013-07-12 00:17:00,
2013-07-11 20:22:00,73.9,64.8,29.96,NE,38,0.0,5.0,73,0.00,,,0.00,18,WxPro DR1,2013-07-12 00:22:00,
2013-07-11 20:27:00,73.2,64.5,29.96,NE,38,0.0,2.0,74,0.00,,,0.00,14,WxPro DR1,2013-07-12 00:27:00,
2013-07-11 20:32:00,72.7,64.7,29.96,NE,38,0.0,2.0,76,0.00,,,0.00,12,WxPro DR1,2013-07-12 00:32:00,
2013-07-11 20:37:00,72.3,64.6,29.96,NE,37,0.0,1.0,77,0.00,,,0.00,9,WxPro DR1,2013-07-12 00:37:00,
2013-07-11 20:43:00,71.9,64.3,29.96,NE,38,0.0,2.0,77,0.00,,,0.00,7,WxPro DR1,2013-07-12 00:43:00,
2013-07-11 20:48:00,71.6,64.3,29.96,NE,37,0.0,2.0,78,0.00,,,0.00,5,WxPro DR1,2013-07-12 00:48:00,
2013-07-11 20:53:00,71.3,64.3,29.96,NE,37,0.0,1.0,79,0.00,,,0.00,0,WxPro DR1,2013-07-12 00:53:00,
2013-07-11 20:58:00,70.9,64.1,29.96,NE,37,0.0,0.0,79,0.00,,,0.00,0,WxPro DR1,2013-07-12 00:58:00,
2013-07-11 21:03:00,70.4,64.0,29.96,NE,38,0.0,0.0,80,0.00,,,0.00,0,WxPro DR1,2013-07-12 01:03:00,
2013-07-11 21:08:00,70.0,63.9,29.96,NE,37,0.0,0.0,81,0.00,,,0.00,0,WxPro DR1,2013-07-12 01:08:00,
2013-07-11 21:13:00,69.6,63.8,29.97,NE,37,0.0,0.0,82,0.00,,,0.00,0,WxPro DR1,2013-07-12 01:13:00,
2013-07-11 21:18:00,69.2,63.8,29.97,NE,38,0.0,0.0,83,0.00,,,0.00,0,WxPro DR1,2013-07-12 01:18:00,
2013-07-11 21:23:00,68.8,63.5,29.97,NE,38,0.0,1.0,83,0.00,,,0.00,0,WxPro DR1,2013-07-12 01:23:00,
2013-07-11 21:28:00,68.5,63.5,29.97,NE,37,0.0,1.0,84,0.00,,,0.00,0,WxPro DR1,2013-07-12 01:28:00,
2013-07-11 21:33:00,68.3,63.3,29.97,NE,38,0.0,0.0,84,0.00,,,0.00,0,WxPro DR1,2013-07-12 01:33:00,
2013-07-11 21:38:00,68.1,63.4,29.98,NE,37,0.0,0.0,85,0.00,,,0.00,0,WxPro DR1,2013-07-12 01:38:00,
2013-07-11 21:43:00,67.9,63.5,29.98,NE,37,0.0,0.0,86,0.00,,,0.00,0,WxPro DR1,2013-07-12 01:43:00,
2013-07-11 21:48:00,67.6,63.3,29.98,NE,38,0.0,0.0,86,0.00,,,0.00,0,WxPro DR1,2013-07-12 01:48:00,
2013-07-11 21:53:00,67.4,63.4,29.98,NE,38,0.0,0.0,87,0.00,,,0.00,0,WxPro DR1,2013-07-12 01:53:00,
2013-07-11 21:58:00,67.1,63.1,29.98,NE,38,0.0,0.0,87,0.00,,,0.00,0,WxPro DR1,2013-07-12 01:58:00,
2013-07-11 22:03:00,66.8,63.1,29.98,NE,38,0.0,0.0,88,0.00,,,0.00,0,WxPro DR1,2013-07-12 02:03:00,
2013-07-11 22:08:00,66.7,63.3,29.98,NE,38,0.0,0.0,89,0.00,,,0.00,0,WxPro DR1,2013-07-12 02:08:00,
2013-07-11 22:13:00,66.6,63.2,29.98,NE,37,0.0,1.0,89,0.00,,,0.00,0,WxPro DR1,2013-07-12 02:13:00,
2013-07-11 22:19:00,66.4,63.2,29.98,NE,37,0.0,1.0,89,0.00,,,0.00,0,WxPro DR1,2013-07-12 02:19:00,
2013-07-11 22:24:00,66.2,63.1,29.98,NE,37,0.0,0.0,90,0.00,,,0.00,0,WxPro DR1,2013-07-12 02:24:00,
2013-07-11 22:29:00,66.0,62.9,29.98,NE,37,0.0,0.0,90,0.00,,,0.00,0,WxPro DR1,2013-07-12 02:29:00,
2013-07-11 22:34:00,65.7,62.8,29.98,NE,38,0.0,0.0,90,0.00,,,0.00,0,WxPro DR1,2013-07-12 02:34:00,
2013-07-11 22:39:00,65.5,63.1,29.98,NE,38,0.0,0.0,92,0.00,,,0.00,0,WxPro DR1,2013-07-12 02:39:00,
2013-07-11 22:44:00,65.3,62.7,29.98,NE,38,0.0,0.0,91,0.00,,,0.00,0,WxPro DR1,2013-07-12 02:44:00,
2013-07-11 22:49:00,65.2,62.5,29.98,NE,38,0.0,0.0,91,0.00,,,0.00,0,WxPro DR1,2013-07-12 02:49:00,
2013-07-11 22:54:00,65.0,62.7,29.98,NE,37,0.0,0.0,92,0.00,,,0.00,0,WxPro DR1,2013-07-12 02:54:00,
2013-07-11 22:59:00,64.8,62.5,29.98,NE,37,0.0,0.0,92,0.00,,,0.00,0,WxPro DR1,2013-07-12 02:59:00,
2013-07-11 23:04:00,64.6,62.6,29.98,NE,38,0.0,0.0,93,0.00,,,0.00,0,WxPro DR1,2013-07-12 03:04:00,
2013-07-11 23:09:00,64.5,62.4,29.98,NE,37,0.0,1.0,93,0.00,,,0.00,0,WxPro DR1,2013-07-12 03:09:00,
2013-07-11 23:14:00,64.2,62.2,29.98,NE,37,0.0,1.0,93,0.00,,,0.00,0,WxPro DR1,2013-07-12 03:14:00,
2013-07-11 23:19:00,64.1,62.3,29.98,NE,38,0.0,1.0,94,0.00,,,0.00,0,WxPro DR1,2013-07-12 03:19:00,
2013-07-11 23:24:00,63.9,61.9,29.98,NE,38,0.0,0.0,93,0.00,,,0.00,0,WxPro DR1,2013-07-12 03:24:00,
2013-07-11 23:29:00,63.8,62.0,29.98,NE,37,0.0,0.0,94,0.00,,,0.00,0,WxPro DR1,2013-07-12 03:29:00,
2013-07-11 23:34:00,63.7,61.9,29.98,NE,37,0.0,0.0,94,0.00,,,0.00,0,WxPro DR1,2013-07-12 03:34:00,
2013-07-11 23:39:00,63.5,61.8,29.98,NE,38,0.0,0.0,94,0.00,,,0.00,0,WxPro DR1,2013-07-12 03:39:00,
2013-07-11 23:44:00,63.4,61.7,29.98,NE,37,0.0,0.0,94,0.00,,,0.00,0,WxPro DR1,2013-07-12 03:44:00,
2013-07-11 23:49:00,63.3,61.6,29.98,NE,37,0.0,0.0,94,0.00,,,0.00,0,WxPro DR1,2013-07-12 03:49:00,
2013-07-11 23:55:00,63.2,61.8,29.98,NE,38,0.0,0.0,95,0.00,,,0.00,0,WxPro DR1,2013-07-12 03:55:00,